Location: Newark
(45.9456°N, 15.4064°E)
Time: 18:42:31
(UTC+00:00)

SR - Pass Details

Date: 02 February 2020
Orbit: 575 x 880 km, 66.7° (Epoch: 26 February)

Event Time Altitude Azimuth Distance (km) Brightness Sun altitude
Rises 17:26:17 0° 154° (SSE) 3,412 ? -14.4°
Reaches altitude 10° 17:30:07 10° 129° (SE) 2,515 ? -15.1°
Enters shadow 17:30:23 11° 126° (SE) 2,475 ? -15.1°
Maximum altitude 17:32:45 13° 102° (ESE) 2,303 - -15.5°
Drops below altitude 10° 17:35:23 10° 75° (ENE) 2,540 - -16.0°
Sets 17:39:17 0° 50° (NE) 3,477 - -16.7°
